{"data":{"norad_id":52872,"intl_designator":"2022-062AU","name":"STARLINK-4213","alt_names":[],"object_type":"PAYLOAD","status":"ACTIVE","operator":null,"country":"US","launch_date":"2022-06-17","launch_site_code":"AFETR","launch_vehicle":null,"mission":null,"orbit_class":"UNKNOWN","rcs_meters":null,"size_class":null,"mass_kg":null,"dimensions":null,"purposes":["comms"],"wikipedia_slug":null,"has_3d_model":false,"image_url":null,"decayed_at":null,"tle_current":{"epoch":"2026-05-25T00:14:18.727872Z","epoch_age_seconds":73516,"freshness":"FRESH","line1":"1 52872U 22062AU  26145.00993898 -.00000941  00000+0 -41035-4 0  9992","line2":"2 52872  53.2142  31.4782 0001482  98.2409 261.8752 15.08847368217589","mean_motion":15.08847368,"eccentricity":0.0001482,"inclination_deg":53.2142,"raan_deg":31.4782,"arg_perigee_deg":98.2409,"mean_anomaly_deg":261.8752,"bstar":-4.1035e-5,"rev_number":21758,"period_min":95.437088637318,"perigee_km":538.69564149132,"apogee_km":540.7460945634,"semimajor_km":6917.8578680274,"source":"CELESTRAK","updated_at":"2026-05-25T13:38:17.269430Z"}}}